contact:dominique.lefevre@mio.osupytheas.fr, maurice.libes@osupytheas.fr, didier.mallarino@osupytheas.fr
Project:EMSO http://www.emso-fr.org/EMSO-France
Depth: 2436.0 m
Title:EMSO Ligure Ouest : Data MII capteur AQUADOPP
Date,Latitude,Longitude,X_East,Y_North,Z_Up,Amplitude_X,Amplitude_Y,Amplitude_Z,Batterie,SoundSpeed,Heading,Pitch,Roll,Pressure,TIS,Speed,Direction
, degrees North, degrees East, m.s-1, m.s-1,m.s-1, 1, 1, 1, Volt, m.s-1, degree, degree, degree, dbar, degree_C, m.s-1, degree
2020-02-08T00:04:03,42.805,6.029,0.036,-0.005,-0.016,105.0,107.0,103.0,13.4,1505.3,326.2,-0.7,1.8,2470.183,13.31,0.036,97.9
2020-02-08T00:07:03,42.805,6.029,0.023,-0.005,-0.024,106.0,107.0,101.0,13.4,1505.3,326.2,-0.7,1.8,2470.217,13.31,0.023,102.3
2020-02-08T00:10:03,42.805,6.029,0.028,0.012,-0.053,107.0,107.0,102.0,13.3,1505.3,327.5,-0.7,1.8,2470.19,13.32,0.03,66.8
2020-02-08T00:13:03,42.805,6.029,0.028,0.004,0.007,106.0,108.0,102.0,13.4,1505.3,325.6,-0.7,1.9,2470.224,13.32,0.028,81.9
2020-02-08T00:16:03,42.805,6.029,0.034,0.005,-0.005,105.0,107.0,101.0,13.4,1505.3,324.8,-0.7,1.8,2470.192,13.32,0.034,81.6
2020-02-08T00:19:03,42.805,6.029,0.044,-0.004,-0.028,105.0,107.0,102.0,13.3,1505.3,325.5,-0.7,1.8,2470.219,13.32,0.044,95.2
2020-02-08T00:22:03,42.805,6.029,0.028,-0.016,-0.027,105.0,108.0,102.0,13.4,1505.3,326.6,-0.7,1.9,2470.219,13.32,0.032,119.7
2020-02-08T00:25:03,42.805,6.029,0.032,-0.007,-0.015,107.0,109.0,104.0,13.3,1505.3,325.0,-0.7,1.8,2470.205,13.33,0.032,102.3
2020-02-08T00:28:03,42.805,6.029,0.036,0.008,-0.011,105.0,107.0,103.0,13.4,1505.3,323.1,-0.7,1.9,2470.182,13.33,0.036,77.5
2020-02-08T00:31:03,42.805,6.029,0.021,0.008,-0.035,104.0,107.0,101.0,13.4,1505.3,327.4,-0.7,1.8,2470.207,13.33,0.022,69.1
2020-02-08T00:34:03,42.805,6.029,0.009,0.002,-0.037,105.0,108.0,102.0,13.4,1505.3,326.0,-0.7,1.8,2470.196,13.33,0.009,77.5
2020-02-08T00:37:03,42.805,6.029,0.033,0.006,-0.036,106.0,108.0,103.0,13.4,1505.3,324.7,-0.7,1.8,2470.201,13.33,0.033,79.7
2020-02-08T00:40:03,42.805,6.029,0.012,0.003,-0.059,106.0,108.0,103.0,13.3,1505.3,326.1,-0.7,1.8,2470.193,13.33,0.012,76.0
2020-02-08T00:43:03,42.805,6.029,0.012,-0.01,-0.004,107.0,108.0,103.0,13.4,1505.3,324.7,-0.7,1.8,2470.227,13.32,0.015,129.8
2020-02-08T00:46:03,42.805,6.029,0.077,0.019,0.01,106.0,108.0,102.0,13.4,1505.3,323.8,-0.7,1.8,2470.185,13.32,0.079,76.1
2020-02-08T00:49:03,42.805,6.029,0.048,0.01,0.016,105.0,107.0,103.0,13.4,1505.3,325.6,-0.7,1.8,2470.206,13.32,0.049,78.2
2020-02-08T00:52:03,42.805,6.029,0.029,-0.02,-0.039,105.0,108.0,104.0,13.3,1505.3,326.5,-0.7,1.8,2470.228,13.33,0.035,124.6
2020-02-08T00:55:03,42.805,6.029,0.045,-0.03,-0.018,105.0,109.0,104.0,13.3,1505.3,326.9,-0.7,1.8,2470.207,13.33,0.054,123.7
2020-02-08T00:58:03,42.805,6.029,0.033,-0.002,-0.006,105.0,108.0,103.0,13.3,1505.3,324.2,-0.7,1.8,2470.193,13.33,0.033,93.5
2020-02-08T01:04:03,42.805,6.029,0.046,-0.01,-0.006,106.0,109.0,103.0,13.3,1505.2,327.1,-0.7,1.8,2470.261,13.3,0.047,102.3
2020-02-08T01:07:02,42.805,6.029,0.035,0.002,0.001,107.0,108.0,102.0,13.4,1505.3,325.8,-0.7,1.8,2470.221,13.31,0.035,86.7
2020-02-08T01:10:03,42.805,6.029,0.038,-0.022,-0.019,105.0,107.0,104.0,13.4,1505.3,323.1,-0.7,1.8,2470.203,13.32,0.043,120.1
2020-02-08T01:13:03,42.805,6.029,0.055,0.004,0.012,106.0,107.0,102.0,13.4,1505.3,325.7,-0.7,1.8,2470.234,13.32,0.055,85.8
2020-02-08T01:16:03,42.805,6.029,0.01,-0.011,-0.031,105.0,108.0,102.0,13.4,1505.3,324.1,-0.7,1.8,2470.224,13.32,0.014,137.7
2020-02-08T01:19:03,42.805,6.029,0.054,-0.02,0.005,106.0,108.0,102.0,13.4,1505.3,328.1,-0.7,1.9,2470.22,13.32,0.057,110.3
2020-02-08T01:22:03,42.805,6.029,0.026,0.007,0.011,106.0,109.0,103.0,13.4,1505.3,326.9,-0.7,1.9,2470.193,13.32,0.026,74.9
2020-02-08T01:25:03,42.805,6.029,0.024,-0.014,-0.033,106.0,108.0,102.0,13.4,1505.3,326.9,-0.7,1.8,2470.177,13.32,0.027,120.3
2020-02-08T01:28:03,42.805,6.029,0.031,-0.026,0.001,105.0,108.0,103.0,13.4,1505.3,326.5,-0.7,1.8,2470.236,13.32,0.04,130.0
2020-02-08T01:31:03,42.805,6.029,0.031,-0.01,-0.016,106.0,107.0,103.0,13.3,1505.3,326.1,-0.7,1.8,2470.195,13.32,0.032,107.9
2020-02-08T01:34:03,42.805,6.029,0.051,-0.011,-0.022,105.0,108.0,103.0,13.3,1505.3,325.1,-0.8,1.8,2470.181,13.32,0.052,102.2
2020-02-08T01:37:03,42.805,6.029,0.049,-0.007,-0.012,107.0,106.0,103.0,13.4,1505.3,325.1,-0.7,1.9,2470.171,13.32,0.049,98.1
2020-02-08T01:40:03,42.805,6.029,0.043,-0.009,-0.018,106.0,109.0,104.0,13.3,1505.3,323.5,-0.7,1.8,2470.2,13.33,0.043,101.8
2020-02-08T01:43:03,42.805,6.029,0.027,-0.012,-0.003,107.0,109.0,102.0,13.4,1505.3,325.4,-0.7,1.8,2470.205,13.33,0.029,114.0
2020-02-08T01:46:03,42.805,6.029,0.011,0.009,-0.024,108.0,111.0,102.0,13.4,1505.3,326.5,-0.7,1.8,2470.188,13.33,0.014,50.7
2020-02-08T01:49:03,42.805,6.029,-0.016,-0.006,-0.062,106.0,109.0,102.0,13.3,1505.3,328.3,-0.7,1.8,2470.211,13.32,0.017,249.4
2020-02-08T01:52:03,42.805,6.029,0.034,-0.01,-0.014,106.0,106.0,103.0,13.3,1505.3,324.1,-0.7,1.8,2470.24,13.32,0.035,106.4
2020-02-08T01:55:03,42.805,6.029,0.032,0.0,-0.016,105.0,106.0,102.0,13.4,1505.3,327.0,-0.7,1.8,2470.164,13.32,0.032,90.0
2020-02-08T01:58:03,42.805,6.029,0.047,-0.018,-0.015,107.0,107.0,102.0,13.4,1505.3,327.7,-0.7,1.8,2470.204,13.32,0.05,111.0
2020-02-08T02:04:03,42.805,6.029,0.04,0.001,-0.007,105.0,106.0,103.0,13.4,1505.2,326.9,-0.7,1.8,2470.26,13.3,0.04,88.6
2020-02-08T02:07:03,42.805,6.029,0.024,-0.01,0.0,106.0,106.0,102.0,13.3,1505.3,323.9,-0.7,1.8,2470.264,13.31,0.026,112.6
2020-02-08T02:10:03,42.805,6.029,0.047,-0.005,-0.026,105.0,107.0,102.0,13.4,1505.3,324.1,-0.8,1.8,2470.259,13.32,0.047,96.1
2020-02-08T02:13:03,42.805,6.029,0.037,0.002,-0.014,106.0,106.0,102.0,13.4,1505.3,325.7,-0.7,1.8,2470.238,13.32,0.037,86.9
2020-02-08T02:16:03,42.805,6.029,0.05,-0.011,-0.009,105.0,108.0,103.0,13.3,1505.3,323.5,-0.7,1.8,2470.23,13.32,0.051,102.4
2020-02-08T02:19:03,42.805,6.029,0.03,0.008,-0.012,107.0,106.0,103.0,13.4,1505.3,328.1,-0.7,1.8,2470.213,13.32,0.031,75.1
2020-02-08T02:22:03,42.805,6.029,0.058,0.01,-0.009,106.0,108.0,103.0,13.4,1505.3,324.3,-0.7,1.8,2470.243,13.32,0.058,80.2
2020-02-08T02:25:03,42.805,6.029,0.035,-0.023,-0.006,105.0,110.0,103.0,13.3,1505.3,326.6,-0.7,1.8,2470.254,13.32,0.041,123.3
2020-02-08T02:28:03,42.805,6.029,0.0,-0.001,-0.06,106.0,108.0,102.0,13.3,1505.3,323.5,-0.7,1.9,2470.23,13.32,0.001,180.0
2020-02-08T02:31:03,42.805,6.029,0.034,-0.005,-0.011,106.0,107.0,102.0,13.4,1505.3,327.7,-0.7,1.8,2470.278,13.32,0.034,98.4
2020-02-08T02:34:03,42.805,6.029,0.028,0.008,-0.016,106.0,107.0,101.0,13.4,1505.3,325.5,-0.8,1.9,2470.225,13.32,0.029,74.1
2020-02-08T02:37:03,42.805,6.029,0.007,-0.003,-0.028,106.0,106.0,103.0,13.4,1505.3,326.8,-0.7,1.9,2470.23,13.32,0.007,113.2
2020-02-08T02:40:03,42.805,6.029,0.052,-0.003,0.011,105.0,107.0,103.0,13.3,1505.3,326.9,-0.7,1.8,2470.258,13.32,0.052,93.3
2020-02-08T02:43:03,42.805,6.029,0.046,-0.021,-0.024,104.0,106.0,102.0,13.3,1505.3,326.0,-0.7,1.8,2470.261,13.33,0.05,114.5
2020-02-08T02:46:03,42.805,6.029,0.042,-0.013,-0.012,106.0,105.0,102.0,13.4,1505.3,328.2,-0.7,1.8,2470.188,13.32,0.043,107.2
2020-02-08T02:49:03,42.805,6.029,0.034,0.008,-0.018,106.0,108.0,103.0,13.3,1505.3,326.9,-0.7,1.9,2470.255,13.32,0.034,76.8
2020-02-08T02:52:03,42.805,6.029,0.035,-0.002,-0.022,105.0,107.0,102.0,13.4,1505.3,325.6,-0.7,1.8,2470.215,13.32,0.035,93.3
2020-02-08T02:55:03,42.805,6.029,0.034,-0.017,0.0,106.0,107.0,102.0,13.3,1505.3,325.5,-0.7,1.8,2470.269,13.32,0.038,116.6
2020-02-08T02:58:03,42.805,6.029,0.034,-0.003,-0.012,105.0,106.0,102.0,13.3,1505.3,324.2,-0.7,1.8,2470.234,13.32,0.034,95.0
2020-02-08T03:04:03,42.805,6.029,0.044,0.003,-0.023,105.0,108.0,103.0,13.3,1505.3,326.3,-0.7,1.9,2470.276,13.31,0.044,86.1
2020-02-08T03:07:03,42.805,6.029,0.039,-0.01,0.009,106.0,109.0,103.0,13.4,1505.3,324.5,-0.7,1.8,2470.274,13.31,0.04,104.4
2020-02-08T03:10:03,42.805,6.029,0.049,0.003,-0.006,105.0,108.0,103.0,13.3,1505.3,323.4,-0.7,1.8,2470.278,13.32,0.049,86.5
2020-02-08T03:13:03,42.805,6.029,0.04,0.001,-0.004,106.0,105.0,103.0,13.4,1505.3,326.2,-0.7,1.9,2470.229,13.32,0.04,88.6
2020-02-08T03:16:03,42.805,6.029,0.046,-0.009,0.015,105.0,105.0,103.0,13.4,1505.3,323.2,-0.7,1.8,2470.266,13.32,0.046,101.1
2020-02-08T03:19:03,42.805,6.029,0.034,-0.01,-0.034,106.0,108.0,103.0,13.3,1505.3,327.7,-0.7,1.8,2470.26,13.32,0.035,106.4
2020-02-08T03:22:03,42.805,6.029,0.033,-0.02,-0.004,106.0,105.0,103.0,13.3,1505.3,325.3,-0.7,1.8,2470.283,13.32,0.038,121.2
2020-02-08T03:25:03,42.805,6.029,0.037,-0.023,-0.031,106.0,106.0,103.0,13.4,1505.3,327.6,-0.7,1.8,2470.276,13.32,0.043,121.9
2020-02-08T03:28:03,42.805,6.029,0.052,0.004,-0.003,106.0,107.0,102.0,13.4,1505.3,326.7,-0.7,1.8,2470.283,13.32,0.052,85.6
2020-02-08T03:31:03,42.805,6.029,0.039,-0.028,-0.01,106.0,107.0,102.0,13.3,1505.3,328.4,-0.7,1.8,2470.296,13.32,0.048,125.7
2020-02-08T03:34:03,42.805,6.029,0.04,0.0,-0.002,105.0,106.0,104.0,13.4,1505.3,323.7,-0.7,1.8,2470.28,13.32,0.04,90.0
2020-02-08T03:37:03,42.805,6.029,0.04,-0.004,-0.001,106.0,106.0,103.0,13.4,1505.3,324.7,-0.7,1.8,2470.316,13.32,0.04,95.7
2020-02-08T03:40:03,42.805,6.029,0.042,-0.019,0.013,106.0,106.0,102.0,13.3,1505.3,327.9,-0.7,1.8,2470.333,13.32,0.046,114.3
2020-02-08T03:43:03,42.805,6.029,0.041,0.004,0.004,106.0,105.0,102.0,13.4,1505.3,323.4,-0.7,1.8,2470.346,13.32,0.041,84.4
2020-02-08T03:46:03,42.805,6.029,0.019,-0.014,-0.032,106.0,108.0,102.0,13.3,1505.3,327.0,-0.7,1.8,2470.328,13.33,0.023,126.4
2020-02-08T03:49:03,42.805,6.029,0.066,-0.018,0.023,104.0,107.0,102.0,13.4,1505.3,328.7,-0.7,1.9,2470.338,13.33,0.068,105.3
2020-02-08T03:52:03,42.805,6.029,0.038,-0.012,-0.021,106.0,107.0,102.0,13.4,1505.3,323.0,-0.7,1.9,2470.314,13.32,0.039,107.5
2020-02-08T03:55:03,42.805,6.029,0.027,0.001,-0.025,107.0,108.0,103.0,13.4,1505.3,324.9,-0.7,1.8,2470.272,13.33,0.027,87.9
2020-02-08T03:58:03,42.805,6.029,0.029,-0.008,0.0,108.0,108.0,102.0,13.4,1505.3,324.5,-0.7,1.8,2470.336,13.32,0.03,105.4
2020-02-08T04:04:03,42.805,6.029,0.048,-0.008,0.0,106.0,106.0,102.0,13.4,1505.3,328.1,-0.7,1.8,2470.353,13.31,0.048,99.5
2020-02-08T04:07:03,42.805,6.029,-0.001,-0.001,-0.037,105.0,107.0,102.0,13.4,1505.3,324.7,-0.7,1.8,2470.305,13.31,0.001,225.0
2020-02-08T04:10:03,42.805,6.029,0.05,-0.008,-0.019,104.0,106.0,103.0,13.4,1505.3,323.5,-0.7,1.8,2470.356,13.32,0.05,99.1
2020-02-08T04:13:03,42.805,6.029,0.032,-0.03,-0.028,106.0,107.0,102.0,13.4,1505.3,326.3,-0.8,1.8,2470.358,13.32,0.043,133.1
2020-02-08T04:16:03,42.805,6.029,0.033,-0.015,-0.02,107.0,108.0,103.0,13.3,1505.3,326.6,-0.7,1.8,2470.362,13.32,0.036,114.4
2020-02-08T04:19:03,42.805,6.029,0.048,0.001,-0.001,105.0,107.0,102.0,13.4,1505.3,323.4,-0.7,1.8,2470.399,13.32,0.048,88.8
2020-02-08T04:22:03,42.805,6.029,0.024,-0.011,-0.027,105.0,105.0,104.0,13.4,1505.3,328.2,-0.7,1.8,2470.349,13.32,0.026,114.6
2020-02-08T04:25:03,42.805,6.029,0.054,0.01,-0.016,104.0,108.0,103.0,13.3,1505.3,326.5,-0.7,1.8,2470.378,13.32,0.054,79.5
2020-02-08T04:28:03,42.805,6.029,0.026,-0.007,-0.041,105.0,107.0,102.0,13.4,1505.3,328.1,-0.7,1.8,2470.376,13.32,0.026,105.1
2020-02-08T04:34:03,42.805,6.029,0.05,-0.003,-0.037,106.0,108.0,102.0,13.4,1505.3,327.0,-0.7,1.8,2470.423,13.31,0.05,93.4
2020-02-08T04:37:03,42.805,6.029,0.025,-0.024,-0.038,106.0,108.0,102.0,13.4,1505.3,324.9,-0.8,1.8,2470.391,13.31,0.034,133.8
2020-02-08T04:40:03,42.805,6.029,0.028,-0.006,-0.032,106.0,106.0,101.0,13.4,1505.3,324.3,-0.7,1.8,2470.39,13.32,0.028,102.1
2020-02-08T04:43:03,42.805,6.029,0.013,0.019,-0.014,105.0,107.0,103.0,13.4,1505.3,327.1,-0.7,1.8,2470.419,13.32,0.023,34.4
2020-02-08T04:46:03,42.805,6.029,0.024,-0.038,-0.003,105.0,110.0,102.0,13.4,1505.3,327.1,-0.7,1.8,2470.432,13.32,0.044,147.7
2020-02-08T04:49:03,42.805,6.029,0.027,-0.013,0.007,106.0,108.0,102.0,13.4,1505.3,326.4,-0.7,1.8,2470.403,13.32,0.029,115.7
2020-02-08T04:52:03,42.805,6.029,0.027,-0.009,-0.029,106.0,108.0,103.0,13.4,1505.3,328.0,-0.7,1.8,2470.377,13.32,0.028,108.4
2020-02-08T04:55:03,42.805,6.029,0.045,-0.01,-0.022,106.0,107.0,102.0,13.3,1505.3,326.1,-0.7,1.8,2470.424,13.32,0.046,102.5
2020-02-08T04:58:03,42.805,6.029,0.047,-0.013,-0.011,106.0,106.0,102.0,13.4,1505.3,327.4,-0.7,1.8,2470.414,13.32,0.048,105.5
2020-02-08T05:04:03,42.805,6.029,0.051,0.009,-0.021,105.0,106.0,102.0,13.4,1505.3,325.5,-0.7,1.8,2470.479,13.31,0.051,80.0
2020-02-08T05:07:03,42.805,6.029,0.013,-0.001,-0.039,105.0,107.0,102.0,13.4,1505.3,327.7,-0.7,1.8,2470.432,13.31,0.013,94.4
2020-02-08T05:10:03,42.805,6.029,0.048,-0.008,-0.015,105.0,106.0,102.0,13.4,1505.3,324.2,-0.7,1.8,2470.445,13.32,0.048,99.5
2020-02-08T05:13:03,42.805,6.029,0.035,-0.019,-0.005,106.0,105.0,103.0,13.4,1505.3,324.6,-0.7,1.8,2470.39,13.32,0.039,118.5
2020-02-08T05:16:03,42.805,6.029,0.049,-0.004,-0.005,105.0,106.0,102.0,13.4,1505.3,325.7,-0.7,1.8,2470.433,13.32,0.049,94.7
2020-02-08T05:19:03,42.805,6.029,0.024,-0.018,-0.009,105.0,105.0,103.0,13.4,1505.3,328.2,-0.7,1.8,2470.448,13.32,0.03,126.9
2020-02-08T05:22:03,42.805,6.029,0.041,0.009,-0.006,105.0,106.0,102.0,13.4,1505.3,325.5,-0.7,1.8,2470.472,13.32,0.041,77.6
2020-02-08T05:25:03,42.805,6.029,0.033,-0.024,-0.005,105.0,105.0,102.0,13.4,1505.3,328.3,-0.7,1.8,2470.452,13.32,0.04,126.0
2020-02-08T05:28:03,42.805,6.029,0.016,-0.01,-0.026,105.0,105.0,101.0,13.3,1505.3,325.7,-0.7,1.8,2470.399,13.32,0.018,122.0
2020-02-08T05:31:03,42.805,6.029,0.032,-0.006,0.009,104.0,106.0,102.0,13.4,1505.3,326.5,-0.7,1.9,2470.45,13.32,0.032,100.6
2020-02-08T05:34:03,42.805,6.029,0.056,0.015,0.007,106.0,107.0,102.0,13.4,1505.3,323.4,-0.7,1.9,2470.45,13.32,0.057,75.0
2020-02-08T05:37:03,42.805,6.029,0.026,-0.008,-0.001,105.0,108.0,102.0,13.4,1505.3,326.6,-0.7,1.8,2470.396,13.33,0.027,107.1
2020-02-08T05:40:03,42.805,6.029,0.033,-0.001,0.0,105.0,107.0,102.0,13.3,1505.3,327.4,-0.7,1.8,2470.398,13.33,0.033,91.7
2020-02-08T05:43:03,42.805,6.029,0.024,-0.004,-0.018,105.0,107.0,101.0,13.3,1505.3,325.7,-0.7,1.8,2470.45,13.33,0.024,99.5
2020-02-08T05:46:03,42.805,6.029,0.042,-0.024,-0.02,104.0,106.0,102.0,13.4,1505.3,327.2,-0.7,1.9,2470.435,13.33,0.048,119.7
2020-02-08T05:49:03,42.805,6.029,0.05,-0.019,-0.013,106.0,106.0,102.0,13.4,1505.3,324.4,-0.7,1.8,2470.418,13.33,0.053,110.8
2020-02-08T05:52:03,42.805,6.029,0.034,-0.009,-0.019,105.0,106.0,101.0,13.4,1505.3,323.2,-0.7,1.9,2470.479,13.33,0.035,104.8
2020-02-08T05:55:03,42.805,6.029,0.035,-0.012,-0.041,106.0,106.0,101.0,13.4,1505.3,323.1,-0.7,1.9,2470.485,13.33,0.037,108.9
2020-02-08T05:58:03,42.805,6.029,0.03,-0.009,-0.02,104.0,106.0,102.0,13.4,1505.3,323.2,-0.7,1.8,2470.502,13.33,0.031,106.7
2020-02-08T06:01:03,42.805,6.029,0.024,-0.015,-0.05,104.0,107.0,102.0,13.3,1505.3,327.2,-0.7,1.8,2470.45,13.33,0.028,122.0
2020-02-08T06:04:03,42.805,6.029,0.039,-0.009,-0.046,104.0,106.0,101.0,13.4,1505.3,327.6,-0.7,1.8,2470.45,13.33,0.04,103.0
2020-02-08T06:07:03,42.805,6.029,0.044,-0.015,-0.007,104.0,105.0,102.0,13.3,1505.3,328.5,-0.7,1.9,2470.424,13.33,0.046,108.8
2020-02-08T06:10:03,42.805,6.029,0.045,-0.012,-0.005,105.0,105.0,102.0,13.4,1505.3,326.6,-0.7,1.8,2470.411,13.32,0.046,104.9
2020-02-08T06:13:03,42.805,6.029,0.051,-0.011,-0.049,105.0,106.0,101.0,13.4,1505.3,326.6,-0.7,1.9,2470.441,13.32,0.052,102.2
2020-02-08T06:16:03,42.805,6.029,0.017,-0.007,-0.028,104.0,107.0,101.0,13.4,1505.3,326.9,-0.7,1.8,2470.461,13.32,0.018,112.4
2020-02-08T06:19:03,42.805,6.029,0.048,-0.006,-0.006,105.0,105.0,102.0,13.4,1505.3,324.7,-0.7,1.8,2470.488,13.33,0.048,97.1
2020-02-08T06:22:03,42.805,6.029,0.037,-0.005,0.015,105.0,106.0,102.0,13.4,1505.3,328.2,-0.7,1.8,2470.399,13.32,0.037,97.7
2020-02-08T06:25:03,42.805,6.029,0.039,-0.021,0.0,105.0,106.0,102.0,13.4,1505.3,325.4,-0.7,1.8,2470.444,13.33,0.044,118.3
2020-02-08T06:28:03,42.805,6.029,0.039,-0.022,0.004,104.0,105.0,102.0,13.4,1505.3,323.2,-0.7,1.9,2470.489,13.33,0.044,119.4
2020-02-08T06:31:03,42.805,6.029,0.039,-0.012,0.0,106.0,107.0,101.0,13.4,1505.3,325.8,-0.7,1.8,2470.418,13.32,0.04,107.1
2020-02-08T06:34:03,42.805,6.029,0.041,-0.004,0.011,104.0,106.0,101.0,13.4,1505.3,324.8,-0.7,1.8,2470.439,13.33,0.041,95.6
2020-02-08T06:37:03,42.805,6.029,0.038,-0.005,-0.033,106.0,105.0,102.0,13.3,1505.3,327.0,-0.7,1.8,2470.42,13.33,0.038,97.5
2020-02-08T06:40:03,42.805,6.029,0.045,-0.016,-0.021,103.0,107.0,102.0,13.3,1505.3,323.6,-0.7,1.8,2470.482,13.32,0.047,109.6
2020-02-08T06:46:03,42.805,6.029,0.014,-0.016,-0.045,106.0,106.0,101.0,13.4,1505.3,325.5,-0.7,1.9,2470.488,13.31,0.021,138.8
2020-02-08T06:49:03,42.805,6.029,0.047,-0.002,-0.02,104.0,106.0,101.0,13.4,1505.3,326.2,-0.7,1.8,2470.5,13.31,0.047,92.4
2020-02-08T06:52:03,42.805,6.029,0.022,0.007,-0.019,104.0,106.0,102.0,13.4,1505.3,325.0,-0.7,1.8,2470.46,13.32,0.023,72.4
2020-02-08T06:55:03,42.805,6.029,0.036,-0.006,-0.022,104.0,105.0,101.0,13.4,1505.3,323.5,-0.7,1.8,2470.499,13.32,0.036,99.5
2020-02-08T06:58:03,42.805,6.029,0.017,-0.022,0.022,104.0,105.0,101.0,13.4,1505.3,328.1,-0.7,1.8,2470.476,13.32,0.027,142.3
2020-02-08T07:04:03,42.805,6.029,0.026,0.009,0.001,104.0,106.0,101.0,13.4,1505.2,325.0,-0.8,1.8,2470.476,13.3,0.027,70.9
2020-02-08T07:07:03,42.805,6.029,0.045,-0.029,0.005,106.0,109.0,102.0,13.3,1505.3,324.6,-0.7,1.8,2470.504,13.31,0.053,122.8
2020-02-08T07:10:03,42.805,6.029,0.011,-0.018,-0.02,106.0,107.0,102.0,13.4,1505.3,327.9,-0.7,1.8,2470.462,13.32,0.021,148.6
2020-02-08T07:13:03,42.805,6.029,0.011,0.0,-0.061,104.0,107.0,102.0,13.3,1505.3,326.9,-0.7,1.8,2470.497,13.32,0.011,90.0
2020-02-08T07:16:03,42.805,6.029,0.033,0.009,-0.03,104.0,106.0,101.0,13.4,1505.3,324.9,-0.7,1.8,2470.496,13.32,0.034,74.7
2020-02-08T07:19:03,42.805,6.029,0.002,-0.007,0.002,104.0,107.0,101.0,13.3,1505.3,326.4,-0.7,1.8,2470.474,13.32,0.007,164.1
2020-02-08T07:22:03,42.805,6.029,0.023,-0.004,-0.028,106.0,107.0,102.0,13.4,1505.3,324.0,-0.7,1.9,2470.462,13.32,0.023,99.9
2020-02-08T07:25:03,42.805,6.029,0.032,0.019,-0.029,105.0,108.0,102.0,13.4,1505.3,326.0,-0.7,1.8,2470.45,13.33,0.037,59.3
2020-02-08T07:28:03,42.805,6.029,0.053,0.0,-0.002,105.0,108.0,101.0,13.4,1505.3,326.1,-0.7,1.8,2470.506,13.32,0.053,90.0
2020-02-08T07:31:03,42.805,6.029,0.034,-0.016,-0.03,105.0,105.0,102.0,13.4,1505.3,327.6,-0.7,1.8,2470.487,13.32,0.037,115.2
2020-02-08T07:34:03,42.805,6.029,0.021,0.0,-0.014,104.0,106.0,102.0,13.3,1505.3,326.7,-0.7,1.8,2470.446,13.32,0.021,90.0
2020-02-08T07:37:03,42.805,6.029,0.028,-0.012,-0.022,105.0,107.0,102.0,13.4,1505.3,328.1,-0.7,1.9,2470.455,13.32,0.03,113.2
2020-02-08T07:40:03,42.805,6.029,0.03,-0.016,0.003,104.0,107.0,101.0,13.4,1505.3,325.2,-0.8,1.8,2470.488,13.33,0.034,118.1
2020-02-08T07:43:03,42.805,6.029,0.051,0.008,0.019,105.0,106.0,101.0,13.3,1505.3,327.3,-0.7,1.8,2470.432,13.33,0.051,81.1
2020-02-08T07:46:03,42.805,6.029,0.032,0.003,-0.014,105.0,106.0,101.0,13.4,1505.3,323.7,-0.7,1.8,2470.465,13.33,0.032,84.6
2020-02-08T07:49:03,42.805,6.029,0.049,-0.048,-0.007,107.0,105.0,102.0,13.4,1505.3,327.4,-0.7,1.8,2470.458,13.33,0.068,134.4
2020-02-08T07:52:03,42.805,6.029,0.006,-0.017,-0.048,105.0,106.0,101.0,13.3,1505.3,324.2,-0.7,1.8,2470.517,13.33,0.018,160.6
2020-02-08T07:55:03,42.805,6.029,0.026,-0.011,-0.031,103.0,107.0,102.0,13.3,1505.3,324.9,-0.7,1.9,2470.442,13.33,0.028,112.9
2020-02-08T07:58:03,42.805,6.029,0.028,-0.02,-0.03,106.0,104.0,102.0,13.4,1505.3,324.6,-0.7,1.8,2470.434,13.33,0.034,125.5
2020-02-08T08:04:03,42.805,6.029,0.025,-0.011,-0.051,105.0,107.0,101.0,13.3,1505.3,325.4,-0.7,1.8,2470.483,13.31,0.027,113.7
2020-02-08T08:07:03,42.805,6.029,0.045,-0.014,-0.027,105.0,107.0,102.0,13.4,1505.3,328.1,-0.7,1.9,2470.441,13.31,0.047,107.3
2020-02-08T08:10:03,42.805,6.029,0.037,0.0,-0.019,107.0,108.0,102.0,13.3,1505.3,325.5,-0.7,1.9,2470.47,13.32,0.037,90.0
2020-02-08T08:13:03,42.805,6.029,-0.005,-0.023,-0.002,106.0,107.0,103.0,13.4,1505.3,326.5,-0.7,1.8,2470.462,13.32,0.023,192.3
2020-02-08T08:16:03,42.805,6.029,0.03,-0.019,0.007,105.0,108.0,103.0,13.4,1505.3,324.4,-0.7,1.9,2470.482,13.32,0.035,122.3
2020-02-08T08:19:03,42.805,6.029,0.015,0.001,0.012,106.0,107.0,103.0,13.4,1505.3,328.1,-0.8,1.8,2470.461,13.33,0.015,86.2
2020-02-08T08:22:03,42.805,6.029,0.02,0.0,-0.026,106.0,106.0,104.0,13.4,1505.3,326.2,-0.7,1.8,2470.463,13.33,0.02,90.0
2020-02-08T08:25:03,42.805,6.029,0.023,0.0,-0.011,104.0,108.0,103.0,13.4,1505.3,323.8,-0.7,1.9,2470.478,13.33,0.023,90.0
2020-02-08T08:28:03,42.805,6.029,0.026,0.003,0.017,104.0,107.0,102.0,13.4,1505.3,325.6,-0.7,1.8,2470.467,13.33,0.026,83.4
2020-02-08T08:31:03,42.805,6.029,0.012,-0.01,-0.008,105.0,108.0,102.0,13.4,1505.3,328.3,-0.7,1.8,2470.476,13.33,0.015,129.8
2020-02-08T08:34:03,42.805,6.029,-0.002,-0.012,0.003,105.0,107.0,103.0,13.3,1505.3,325.8,-0.7,1.8,2470.463,13.33,0.012,189.5
2020-02-08T08:37:03,42.805,6.029,0.026,-0.009,-0.022,105.0,107.0,102.0,13.4,1505.3,327.9,-0.7,1.9,2470.435,13.33,0.027,109.1
2020-02-08T08:40:03,42.805,6.029,0.002,-0.005,-0.026,105.0,108.0,102.0,13.3,1505.3,326.3,-0.7,1.8,2470.428,13.33,0.005,158.2
2020-02-08T08:43:03,42.805,6.029,0.001,-0.001,-0.05,107.0,107.0,101.0,13.4,1505.3,326.9,-0.7,1.8,2470.4,13.33,0.001,135.0
2020-02-08T08:46:03,42.805,6.029,0.013,-0.001,-0.006,108.0,107.0,103.0,13.4,1505.3,326.9,-0.7,1.8,2470.408,13.33,0.013,94.4
2020-02-08T08:49:03,42.805,6.029,0.001,-0.013,-0.027,105.0,106.0,102.0,13.4,1505.3,326.3,-0.7,1.8,2470.404,13.33,0.013,175.6
2020-02-08T08:52:03,42.805,6.029,0.017,0.006,-0.054,106.0,108.0,102.0,13.4,1505.3,326.9,-0.7,1.8,2470.435,13.33,0.018,70.6
2020-02-08T08:55:03,42.805,6.029,0.02,-0.01,-0.002,105.0,108.0,102.0,13.4,1505.3,327.5,-0.7,1.9,2470.431,13.33,0.022,116.6
2020-02-08T08:58:03,42.805,6.029,0.002,-0.006,-0.02,106.0,106.0,101.0,13.4,1505.3,324.0,-0.7,1.8,2470.378,13.33,0.006,161.6
2020-02-08T09:04:03,42.805,6.029,0.033,0.0,0.002,106.0,108.0,102.0,13.4,1505.3,324.5,-0.7,1.8,2470.444,13.31,0.033,90.0
2020-02-08T09:07:02,42.805,6.029,0.045,-0.009,0.013,107.0,107.0,102.0,13.4,1505.3,326.5,-0.7,1.8,2470.439,13.31,0.045,101.3
2020-02-08T09:10:03,42.805,6.029,0.03,-0.008,-0.002,107.0,107.0,103.0,13.4,1505.3,323.8,-0.7,1.8,2470.47,13.32,0.031,104.9
2020-02-08T09:13:03,42.805,6.029,0.034,-0.009,0.016,105.0,107.0,104.0,13.4,1505.3,328.1,-0.7,1.8,2470.418,13.32,0.035,104.8
2020-02-08T09:16:03,42.805,6.029,0.0,-0.006,-0.046,105.0,107.0,102.0,13.4,1505.3,324.5,-0.7,1.8,2470.444,13.32,0.006,180.0
2020-02-08T09:19:03,42.805,6.029,0.017,0.001,-0.019,105.0,108.0,103.0,13.4,1505.3,326.5,-0.7,1.8,2470.477,13.33,0.017,86.6
2020-02-08T09:22:03,42.805,6.029,0.013,-0.012,0.009,106.0,108.0,102.0,13.4,1505.3,323.2,-0.7,1.9,2470.395,13.33,0.017,132.7
2020-02-08T09:25:03,42.805,6.029,0.003,-0.019,0.003,104.0,107.0,102.0,13.4,1505.3,327.7,-0.7,1.9,2470.389,13.33,0.019,171.0
2020-02-08T09:28:03,42.805,6.029,0.025,-0.008,-0.006,107.0,108.0,103.0,13.4,1505.3,326.4,-0.7,1.8,2470.398,13.33,0.026,107.7
2020-02-08T09:31:03,42.805,6.029,0.029,0.0,-0.014,105.0,108.0,102.0,13.4,1505.3,325.0,-0.7,1.9,2470.43,13.33,0.028,90.0
2020-02-08T09:34:03,42.805,6.029,0.018,-0.006,-0.007,105.0,107.0,102.0,13.4,1505.3,327.2,-0.7,1.8,2470.444,13.33,0.018,108.4
2020-02-08T09:37:03,42.805,6.029,0.032,-0.016,-0.004,109.0,108.0,102.0,13.3,1505.3,325.4,-0.7,1.8,2470.414,13.33,0.035,116.6
2020-02-08T09:40:03,42.805,6.029,0.038,0.001,0.013,106.0,106.0,103.0,13.4,1505.3,325.9,-0.7,1.8,2470.389,13.33,0.038,88.5
2020-02-08T09:43:03,42.805,6.029,0.054,-0.007,-0.006,105.0,106.0,103.0,13.4,1505.3,324.3,-0.7,1.8,2470.397,13.33,0.054,97.4
2020-02-08T09:46:03,42.805,6.029,0.001,0.004,-0.009,105.0,107.0,102.0,13.4,1505.3,325.3,-0.7,1.8,2470.394,13.33,0.004,14.0
2020-02-08T09:49:03,42.805,6.029,0.031,0.002,0.009,105.0,107.0,102.0,13.3,1505.3,327.5,-0.7,1.8,2470.368,13.33,0.031,86.3
2020-02-08T09:52:03,42.805,6.029,-0.004,-0.026,-0.009,105.0,107.0,102.0,13.4,1505.3,325.6,-0.7,1.8,2470.405,13.33,0.026,188.7
2020-02-08T09:55:03,42.805,6.029,0.029,-0.017,-0.017,105.0,106.0,102.0,13.4,1505.3,324.6,-0.7,1.8,2470.392,13.33,0.033,120.4
2020-02-08T09:58:03,42.805,6.029,0.021,-0.008,-0.017,104.0,106.0,102.0,13.4,1505.3,324.8,-0.7,1.8,2470.395,13.33,0.022,110.9
2020-02-08T10:04:03,42.805,6.029,0.0,0.012,-0.014,105.0,106.0,102.0,13.4,1505.3,325.4,-0.7,1.8,2470.459,13.31,0.012,0.0